Location: Im Fang
(46.6019°N, 7.2397°E)
Time: 14:24:56
(UTC+00:00)

COSMO-SKYMED 1 - Pass Details

Date: 08 December 2019
Orbit: 621 x 623 km, 97.9° (Epoch: 19 January)

Event Time Altitude Azimuth Distance (km) Brightness Sun altitude
Rises 05:05:34 0° 181° (S) 2,891 6.2 -19.1°
Reaches altitude 10° 05:07:49 10° 187° (S) 1,990 5.2 -18.7°
Maximum altitude 05:11:58 46° 261° (W) 846 2.8 -18.1°
Enters shadow 05:13:24 33° 309° (NW) 1,048 3.2 -17.8°
